Hourly Data Report for January 08, 2004

All times are specified in Local Standard Time (LST). Add 1 hour to adjust for Daylight Saving Time where and when it is observed.

SHERBROOKE A
QUEBEC

45°26'00.000" N
71°41'00.000" W
241.40 m
7028124
71610
YSC

Download Data

Hourly Data (January 2004)
Hourly Data Report for January 8, 2004
TIME Temp Definition
°C
Dew Point Temp Definition
°C
Rel Hum Definition
%
Wind Dir Definition
10's deg

Wind Spd Definition
km/h
Visibility Definition
km
Stn Press Definition
kPa
Hmdx Definition


Wind Chill Definition


Weather Definition


00:00 -24.3 -33.4 43 28 24 15.0 98.75   -37  
01:00 -25.1 -33.5 45 29 28 15.0 98.80   -39  
02:00 -25.6 -34.1 45 28 22 15.0 98.92   -38  
03:00 -26.5 -34.6 46 27 13 15.0 98.98   -36  
04:00 -27.6 -35.2 48 28 9 15.0 99.01   -36  
05:00 -27.4 -34.6 50 26 15 15.0 99.02   -38  
06:00 -28.4 -35.0 53 26 9 15.0 99.07   -37  
07:00 -28.0 -34.4 54 25 13 15.0 99.11   -38  
08:00 -28.0 -34.4 54 26 13 24.1 99.17   -38 Clear
09:00 -26.7 -33.5 53 27 15 24.1 99.21   -37 Clear
10:00 -25.6 -33.8 46 27 24 24.1 99.24   -39 Clear
11:00 -25.2 -33.6 45 28 22 24.1 99.25   -38 Mainly Clear
12:00 -24.4 -33.5 43 29 28 24.1 99.22   -38 Mainly Clear
13:00 -23.9 -33.6 40 29 20 24.1 99.22   -35 Mainly Clear
14:00 -24.0 -33.4 42 28 20 24.1 99.26   -36 Clear
15:00 -23.9 -33.6 40 29 22 24.1 99.27   -36 Clear
16:00 -24.3 -34.0 40 29 15 24.1 99.32   -34 Clear
17:00 -26.3 -34.6 46 29 11 24.1 99.41   -35 Clear
18:00 -27.0 -34.6 49 25 7 15.0 99.45   -34  
19:00 -26.5 -34.0 49 25 7 15.0 99.48   -33  
20:00 -28.8 -34.4 58 23 7 15.0 99.50   -36  
21:00 -29.5 -35.3 57 25 7 15.0 99.51   -37  
22:00 -28.0 -33.5 59 25 9 15.0 99.52   -36  
23:00 -33.3 -38.3 61 25 9 15.0 99.51   -43  

Notes on Data Quality.

Legend

  • E = Estimated
  • M = Missing
  • NA = Not Available
Date modified: